Theta_e
335 334 335 340 340 339 339 338 338 336 336 335 335 335 335 334 334 334 334 334 333 333 332 332 331 332 332 332 331 331 330 330 329 329 328 328 328 328 328 328 328 328 328 329 328 329 329 328 329 328 328 327 327 327 328 327 327 326 325 325 324 323 322 325 326 325 325 329 329 328 329 329 327 327 326 328 328 326 323 324 322 318 318 322 325
334 335 334 336 339 339 339 337 338 337 337 335 334 334 334 333 333 333 334 334 334 334 332 332 333 333 331 331 331 330 329 329 329 328 328 328 328 327 327 327 327 327 327 328 329 329 328 328 328 328 327 327 327 327 325 326 325 324 323 322 323 323 325 325 324 324 323 324 326 327 328 328 327 327 324 326 327 325 322 324 323 319 317 325 325
335 334 335 336 340 339 338 338 338 337 335 335 334 334 333 332 333 333 333 333 333 333 332 333 331 330 331 332 331 330 330 330 329 329 328 328 328 328 327 328 327 327 327 327 327 328 328 328 328 327 327 326 326 326 325 324 322 322 322 323 323 324 324 323 322 322 323 324 324 326 326 327 327 327 324 325 325 325 323 323 323 322 317 325 324
333 333 334 337 339 339 339 337 336 336 336 334 334 334 332 333 333 333 333 332 331 329 329 330 330 330 331 330 330 330 331 329 329 328 328 327 327 327 327 326 326 326 326 326 326 326 326 326 327 326 326 326 326 325 324 323 323 323 323 323 323 323 323 322 321 321 322 323 324 322 320 317 321 325 325 325 324 324 322 322 323 324 325 324 324
333 333 334 335 335 338 338 339 338 336 335 335 335 333 332 332 333 333 331 331 331 331 330 330 331 331 330 329 328 329 328 328 328 327 327 327 327 326 326 326 326 327 326 326 326 325 325 325 325 326 326 326 325 325 323 322 322 322 322 323 323 322 321 321 321 321 321 322 322 320 315 315 317 323 325 324 323 321 322 323 323 323 323 323 323
333 333 334 334 334 336 339 338 336 336 336 335 333 333 333 333 332 332 332 331 330 331 330 330 328 328 329 329 329 329 328 327 327 326 327 326 326 326 326 327 326 326 326 326 325 324 323 323 324 325 325 325 325 324 322 322 322 322 322 322 322 321 320 320 320 320 320 320 320 314 314 313 316 319 325 324 322 320 322 322 323 324 323 321 321
334 333 333 333 334 336 339 337 336 337 335 334 333 333 333 332 332 331 330 330 330 330 328 330 329 328 327 328 328 328 327 326 326 326 325 326 325 325 325 325 324 324 325 324 324 323 323 324 324 324 324 324 324 323 322 322 322 322 322 322 321 320 319 319 320 320 319 316 310 311 312 312 313 316 324 325 322 321 321 321 322 324 321 318 321
334 333 333 333 334 337 338 338 337 336 335 335 334 333 333 333 333 332 331 331 330 329 329 328 328 328 327 326 327 327 326 326 326 325 325 325 324 324 324 324 324 324 324 324 323 323 324 324 323 323 323 323 323 322 321 321 322 322 321 322 320 319 319 319 319 319 318 311 310 311 311 312 313 315 323 324 322 322 321 323 323 322 320 322 318
332 332 332 333 335 338 338 337 336 335 336 335 334 332 332 332 331 331 330 330 330 329 328 328 327 328 328 327 327 326 326 325 325 325 325 324 324 324 324 324 324 324 323 323 324 324 323 323 322 322 322 322 321 320 319 320 321 321 321 321 320 319 318 318 319 318 314 311 311 311 311 311 311 312 320 323 323 321 320 321 319 319 320 318 317
331 331 332 334 334 337 337 337 336 336 335 334 334 333 333 332 331 330 329 329 329 328 328 328 328 327 327 327 326 326 326 325 325 325 324 325 324 324 323 323 323 323 323 323 323 324 323 322 322 321 320 320 320 320 319 319 319 320 320 320 319 318 317 317 317 316 310 310 310 311 313 317 310 313 319 323 323 321 318 317 316 316 316 316 316
331 331 333 334 335 337 337 337 336 335 335 335 334 333 333 331 330 329 328 328 329 329 328 327 327 326 326 326 326 326 325 325 325 324 324 324 324 323 323 323 324 323 323 322 323 323 322 322 321 320 320 320 320 319 318 318 318 318 318 318 318 318 317 316 315 309 310 309 309 309 312 316 311 313 320 322 322 319 317 317 316 317 317 317 317
330 332 333 333 337 337 337 336 335 335 334 334 333 332 332 331 330 329 328 327 327 327 327 326 326 326 326 326 326 326 326 324 324 324 323 323 323 323 322 322 323 322 323 322 322 322 322 321 320 320 320 319 318 317 317 316 317 317 317 317 317 318 315 315 310 308 308 308 308 309 309 310 312 314 319 320 320 320 318 319 318 318 319 316 319
331 333 333 334 334 336 336 336 335 334 334 334 333 332 330 330 329 328 328 327 327 326 326 326 326 327 326 326 325 325 324 324 323 323 322 322 323 322 322 322 322 322 322 322 322 322 321 320 320 320 319 317 316 316 315 315 315 317 317 317 316 317 314 315 308 308 308 308 308 307 308 308 310 317 317 319 319 320 317 319 317 318 317 317 317
332 332 332 332 332 336 335 335 335 334 333 333 332 331 331 330 329 328 328 327 325 325 325 325 325 325 326 326 325 325 324 323 323 323 322 322 322 322 322 322 321 322 322 321 321 321 320 319 320 319 318 316 316 316 314 314 314 316 315 315 315 314 313 312 312 307 307 307 307 307 306 309 310 318 317 317 320 318 318 317 316 316 316 316 316
331 331 331 332 332 332 336 334 333 333 332 331 331 330 329 329 328 328 327 326 325 324 324 324 324 324 323 323 323 323 323 322 322 321 321 321 321 321 320 321 321 322 322 321 321 320 319 319 319 318 316 316 315 314 313 312 313 313 313 313 313 313 312 307 307 306 306 307 306 306 306 308 316 316 316 316 318 317 319 316 317 316 316 316 318
332 331 331 330 330 331 330 334 331 331 331 331 330 330 329 328 327 327 325 325 325 324 324 324 323 323 323 322 322 321 321 321 320 320 320 320 320 319 320 321 321 321 320 320 320 319 318 318 317 316 315 315 314 312 311 311 311 311 310 310 311 312 311 309 304 304 304 304 305 305 305 308 315 315 317 316 317 318 318 316 316 316 316 316 315
332 330 329 329 330 329 329 328 330 331 330 330 330 329 328 327 326 325 325 324 324 323 323 323 322 322 321 321 320 320 320 320 319 319 318 319 318 319 319 321 321 320 320 320 319 318 318 317 316 315 314 314 312 310 310 309 309 308 308 308 309 310 310 308 303 302 303 305 304 304 304 308 313 316 316 315 315 317 317 318 317 316 316 315 314
331 330 328 329 328 327 328 327 327 327 327 328 328 328 327 326 325 324 323 323 323 322 321 321 321 321 320 320 319 319 319 319 318 318 317 317 318 318 319 319 319 319 319 319 319 318 317 316 315 314 313 312 310 309 309 308 307 306 306 306 307 308 308 307 301 300 301 304 302 304 304 312 314 315 315 315 314 315 315 316 315 315 314 314 314
329 329 329 328 327 327 326 326 326 325 325 324 323 324 325 325 324 323 322 321 321 320 320 319 320 319 318 318 318 317 317 317 316 316 316 316 317 317 317 318 318 318 318 318 318 317 316 315 314 312 311 310 309 309 308 307 306 305 305 304 304 305 306 303 299 298 300 301 301 301 305 312 313 314 314 314 314 314 314 315 314 314 313 313 313
327 327 328 327 326 326 324 324 324 324 323 322 322 322 324 324 323 322 320 320 319 318 318 317 317 317 316 317 316 314 314 313 316 314 315 315 315 314 316 316 317 318 318 317 317 316 315 313 312 311 309 309 308 307 307 306 306 305 304 303 302 302 296 296 296 296 297 299 302 301 309 311 313 313 313 314 315 314 313 314 314 313 313 313 313
327 326 326 326 325 324 323 323 323 322 322 321 320 319 320 321 320 320 318 318 317 317 317 316 315 314 314 314 313 309 308 308 308 309 313 311 313 314 315 315 315 316 316 315 315 314 313 311 309 308 307 306 305 305 305 305 304 304 303 301 301 293 294 295 294 295 296 297 299 302 309 310 311 314 314 314 314 314 314 314 314 312 312 312 312
325 324 326 325 324 323 321 322 321 321 321 320 319 317 316 315 312 312 311 312 313 313 309 307 311 306 313 308 305 306 304 304 306 309 306 308 309 312 313 313 314 314 313 312 312 312 311 310 308 306 305 303 301 294 299 304 303 302 301 300 293 292 292 293 292 292 294 295 298 303 308 309 310 311 313 313 313 313 313 313 313 312 311 311 311
323 323 324 324 323 322 321 321 321 320 319 318 317 316 314 312 309 307 308 310 309 307 304 304 302 303 303 301 301 300 302 303 304 305 305 306 306 307 308 310 310 310 310 310 310 309 308 306 305 304 303 302 299 295 295 294 295 302 301 294 291 291 292 291 291 290 291 295 295 304 307 308 310 311 312 313 313 312 312 311 312 312 311 310 311
323 323 322 324 323 321 320 321 320 319 318 317 316 315 312 308 305 305 305 304 304 305 303 302 302 301 301 298 296 298 298 301 305 304 302 298 300 303 303 303 304 304 304 304 304 304 304 304 303 302 307 303 294 294 294 293 293 293 293 291 291 292 291 291 290 289 289 294 295 303 305 307 308 309 311 312 312 311 310 310 311 311 311 310 310
323 323 323 322 321 320 320 320 320 318 317 316 315 312 308 305 304 304 304 303 303 302 302 301 301 300 299 298 297 296 297 298 299 299 294 295 295 296 299 296 297 297 302 296 297 299 300 297 297 300 294 296 295 294 294 293 294 294 292 292 292 291 291 291 289 289 289 290 295 301 303 305 307 308 309 310 310 310 309 309 310 310 310 310 310
323 322 322 321 321 320 320 320 319 318 316 315 312 309 306 303 303 303 303 302 302 300 300 300 300 299 298 299 299 298 298 297 298 297 297 297 297 296 296 296 297 297 299 296 296 296 295 295 295 295 294 294 294 294 294 295 293 292 292 292 292 291 290 289 289 289 289 290 293 298 301 302 305 307 307 309 309 309 308 308 308 309 310 310 310
321 321 322 321 321 320 319 320 318 315 314 310 308 306 304 303 303 303 302 301 301 301 300 299 299 300 299 300 298 296 296 297 298 298 297 297 296 296 295 295 295 294 296 294 295 295 295 294 294 294 294 293 293 293 293 293 293 293 293 292 291 290 290 289 289 288 288 290 294 296 298 300 301 303 304 307 308 308 307 308 308 308 309 309 309
321 320 321 321 319 319 319 319 316 313 309 306 306 307 303 303 303 305 303 304 302 300 300 300 302 300 301 299 300 297 296 296 297 296 296 296 295 295 295 295 294 294 294 295 294 293 294 294 294 294 294 293 293 293 293 293 293 293 293 291 291 290 289 289 288 289 288 289 291 294 295 297 299 300 302 304 305 307 307 307 307 308 309 309 309
319 320 320 320 319 318 317 315 311 308 306 305 303 303 303 303 303 302 302 305 300 300 299 299 298 299 299 300 300 297 296 296 296 296 296 296 296 295 294 294 294 294 294 293 294 293 293 294 294 294 294 292 292 292 293 293 292 292 292 291 290 289 289 289 288 288 288 287 289 293 295 295 296 297 299 301 302 304 305 307 307 307 307 308 309
319 319 318 318 316 316 314 312 308 306 304 303 302 302 302 302 302 301 301 302 300 299 298 297 296 296 296 298 298 297 296 296 296 296 296 296 295 294 294 294 294 293 293 293 294 293 293 293 293 293 293 292 292 293 292 291 292 292 291 290 290 289 289 288 287 287 287 286 287 290 294 294 295 296 297 299 300 302 303 305 306 307 307 308 309
318 316 316 314 314 313 309 308 309 304 304 302 302 302 302 303 301 301 300 299 299 298 297 296 296 296 297 298 297 298 297 297 296 296 295 296 296 294 293 294 293 293 293 293 294 294 293 293 294 293 293 293 292 292 292 291 290 291 292 290 290 290 288 288 288 287 286 286 285 287 292 293 294 295 295 297 299 300 301 303 305 306 306 308 308
317 315 314 313 312 311 308 306 307 307 304 303 304 303 302 301 301 300 299 298 298 296 296 296 297 297 297 297 295 295 297 297 297 297 296 296 296 295 294 293 293 293 294 293 293 293 293 293 294 293 293 292 292 292 292 291 290 291 290 290 290 289 288 288 287 287 287 286 285 285 286 291 293 293 293 295 296 298 300 302 303 304 305 307 308
318 316 313 311 310 308 307 306 305 306 304 303 302 301 301 300 299 298 299 300 297 296 296 296 296 297 297 297 297 297 296 296 296 297 298 296 296 295 293 294 293 292 293 294 294 294 293 292 292 293 293 292 292 292 294 291 290 290 290 290 289 289 288 288 287 286 287 286 285 285 285 288 287 293 292 293 294 296 298 300 302 303 304 305 307
317 314 311 310 310 308 306 304 304 303 303 302 301 300 300 299 299 299 299 297 297 297 297 296 297 296 296 297 297 297 296 296 297 297 296 296 295 294 292 292 292 293 293 294 294 293 292 293 292 291 293 292 291 291 291 291 290 290 289 290 289 288 288 288 287 287 287 286 285 284 284 284 285 285 287 292 292 293 296 299 300 301 302 303 305
316 312 310 310 309 307 305 304 304 303 302 301 301 300 300 299 298 298 298 298 297 296 296 296 296 295 296 295 296 296 296 297 297 296 295 295 294 292 292 292 293 294 292 293 293 293 293 292 293 291 291 291 291 292 291 290 290 290 290 289 288 289 288 288 287 287 287 286 285 284 284 284 285 285 287 283 291 292 294 296 298 298 299 300 302
315 311 311 310 307 306 305 304 303 301 301 300 299 299 300 298 298 299 297 297 296 296 296 295 295 295 295 295 295 296 296 296 296 297 295 295 293 291 291 293 294 292 293 293 293 293 292 292 291 292 291 290 290 291 291 290 291 290 290 289 288 290 287 287 287 287 287 285 285 284 284 285 285 285 289 284 284 290 292 294 296 296 296 297 299
314 311 310 308 305 305 305 304 302 301 300 299 298 297 298 298 297 297 297 297 296 296 295 295 295 294 294 294 295 295 295 296 296 297 295 294 292 292 292 293 293 293 292 292 291 293 293 294 291 292 291 290 290 291 291 290 290 290 289 289 289 289 288 288 287 287 289 285 284 284 285 284 288 292 283 284 284 283 290 292 293 293 293 295 297
313 311 309 306 305 304 304 304 303 302 299 298 297 297 297 297 297 298 298 296 295 295 295 294 294 294 294 293 294 295 295 295 296 295 294 294 293 292 292 293 293 293 293 291 291 292 292 291 290 290 291 291 289 290 290 289 291 291 289 289 289 289 288 288 288 290 286 285 284 284 285 285 284 285 284 284 284 284 284 288 291 291 291 293 295
312 310 308 306 305 304 303 302 301 301 300 298 298 297 296 296 297 297 296 295 295 295 295 294 294 294 294 294 294 294 294 294 296 296 294 293 293 293 292 293 293 293 292 291 290 291 291 292 289 289 291 290 289 289 289 290 291 291 290 289 289 289 288 288 288 287 286 285 287 289 287 284 284 284 284 284 284 283 283 283 282 282 284 291 292
311 309 307 305 304 303 302 301 300 300 299 298 296 296 296 295 295 296 297 297 295 295 294 294 294 294 295 294 294 293 294 294 294 295 294 293 293 292 292 293 292 292 291 290 290 290 291 291 290 289 289 289 290 290 290 289 289 289 289 288 288 288 289 288 287 288 287 286 285 284 283 284 283 283 284 284 283 284 283 282 285 282 284 287 290
309 307 306 304 303 302 301 299 299 299 297 296 294 294 294 295 296 296 295 296 295 294 294 294 293 294 294 294 294 293 294 294 295 294 292 293 292 292 291 291 292 292 292 290 290 291 291 290 291 290 290 288 287 289 289 288 287 287 288 287 287 288 290 289 287 287 287 285 284 283 284 283 282 283 283 283 284 283 283 283 283 283 283 283 284
306 306 305 304 303 302 300 299 298 298 297 297 297 296 296 296 296 296 295 294 293 292 292 293 293 294 295 295 294 294 294 293 294 293 293 293 291 291 292 292 291 290 291 291 290 291 291 290 291 288 288 287 286 287 289 288 287 287 286 287 287 287 288 287 287 287 286 285 284 284 283 284 283 283 283 283 282 283 282 282 283 283 283 283 283
306 305 304 303 302 301 300 299 298 297 297 298 298 297 299 299 297 296 296 296 296 295 293 293 293 293 294 294 294 294 293 292 293 293 293 292 291 290 290 291 291 292 290 290 291 291 290 290 289 288 286 287 286 288 287 288 285 285 286 285 285 284 287 286 286 287 287 285 285 285 285 283 284 284 283 282 282 282 283 283 283 283 283 283 282
304 304 303 301 301 300 298 298 298 298 298 299 300 300 300 300 299 298 298 297 294 294 293 293 292 292 291 292 292 292 293 292 293 292 292 292 292 290 290 290 290 291 291 290 290 289 289 289 289 289 288 287 287 285 287 287 285 284 285 285 285 283 283 284 284 286 285 285 285 285 283 283 283 283 282 282 282 282 282 283 282 283 283 283 283
303 303 302 301 300 299 298 298 298 298 299 300 300 300 299 298 297 296 295 294 294 293 293 292 291 291 290 291 291 291 292 291 292 292 292 291 291 291 290 290 290 290 291 290 289 289 289 288 289 288 286 287 285 285 285 286 286 287 283 283 284 284 281 283 282 283 284 284 284 284 285 283 283 283 281 282 282 282 282 282 282 282 282 282 282
303 302 302 301 300 298 298 298 298 298 299 300 300 299 298 296 294 293 292 292 291 291 291 290 290 289 289 290 291 291 291 292 292 292 292 292 290 291 291 290 290 290 291 290 289 289 289 287 287 288 287 287 286 284 283 286 287 287 286 285 284 282 280 280 281 279 283 284 284 284 283 282 282 283 282 282 282 281 283 282 282 282 282 282 282
302 302 302 301 300 298 298 298 298 298 300 300 299 299 297 296 296 295 295 293 292 294 295 293 291 291 290 289 290 291 291 292 292 291 291 291 291 291 291 290 290 289 290 289 288 287 287 287 288 288 287 288 287 285 284 284 285 284 286 285 285 284 283 278 278 280 278 280 283 283 283 283 282 282 283 283 282 281 281 283 281 281 281 282 281
302 301 301 301 299 299 298 298 299 299 300 300 299 299 297 297 297 297 297 296 295 294 293 292 291 291 289 289 289 289 292 292 291 290 291 291 291 290 290 290 290 289 290 288 288 288 288 289 289 288 287 287 286 285 284 284 283 282 285 284 284 284 282 282 281 280 280 278 279 282 282 282 282 282 281 282 282 282 281 281 281 281 280 281 281
301 300 300 300 299 299 299 299 299 299 300 300 300 299 299 298 298 298 297 298 298 296 295 293 291 290 289 288 289 289 290 291 290 290 290 291 291 290 290 290 289 288 290 289 289 289 288 288 287 287 286 285 287 286 284 282 283 282 281 282 282 281 281 281 282 281 279 276 275 277 278 280 281 281 282 281 282 282 281 281 282 282 282 282 281
301 301 301 300 299 299 299 298 298 299 300 300 300 300 300 300 299 299 298 297 296 295 294 292 290 290 288 288 288 288 288 289 289 290 290 291 290 289 289 289 288 289 289 289 288 288 287 286 286 286 286 285 285 285 284 282 283 282 282 282 281 280 280 280 279 279 278 279 277 276 277 277 276 278 281 281 281 283 281 281 280 280 280 280 281
301 300 300 300 299 299 298 298 298 299 300 300 300 299 300 300 300 299 298 296 295 294 293 291 290 289 288 288 288 288 288 288 288 289 290 290 289 289 288 288 288 289 289 288 287 287 286 286 286 285 285 285 284 284 285 283 283 282 281 280 280 281 280 279 277 278 277 276 275 275 276 276 277 276 278 280 281 281 281 281 280 279 279 280 280
Wind_Speed
9 13 11 16 16 16 16 16 15 14 14 15 15 15 14 15 15 14 14 14 15 14 15 15 15 15 16 16 16 16 16 16 16 15 16 16 16 16 17 17 17 17 17 17 17 16 17 16 16 16 16 16 16 16 16 16 16 15 15 15 16 17 16 16 15 14 14 19 20 21 20 21 21 21 21 20 21 19 18 19 16 10 7 12 19
14 12 11 12 18 17 17 17 16 15 15 15 14 15 14 15 15 14 15 14 15 15 15 15 14 14 15 15 16 16 16 16 16 16 16 16 16 16 17 17 16 16 16 16 16 16 16 15 16 16 16 16 16 16 15 15 15 15 16 17 17 17 16 16 16 13 11 14 18 20 20 22 21 19 20 19 20 19 18 19 20 11 6 17 18
14 12 11 13 18 17 17 17 17 16 15 15 15 15 15 14 14 15 15 15 15 15 16 15 15 15 16 15 16 16 17 16 16 16 16 17 16 16 16 16 17 16 16 16 15 15 16 16 16 16 16 16 16 15 15 15 15 16 17 18 18 17 17 16 14 14 13 13 16 19 19 20 20 19 20 20 20 20 18 20 19 18 11 20 18
14 12 11 15 18 17 17 16 15 15 15 15 15 15 15 15 15 14 14 14 14 14 14 15 14 15 15 15 15 16 16 16 16 16 16 16 17 17 17 17 16 17 16 16 16 16 15 15 16 16 16 16 16 16 16 16 16 17 18 18 18 18 16 14 14 14 14 15 15 14 7 7 11 20 21 21 21 19 18 20 19 20 21 19 20
12 12 12 11 11 15 17 18 17 17 16 16 16 14 15 16 15 15 15 15 15 15 15 15 15 14 15 15 16 15 16 15 16 16 16 16 16 17 16 16 16 16 16 16 16 15 15 15 15 16 16 16 17 17 17 17 17 17 17 18 18 16 15 15 15 16 16 17 16 11 8 7 7 18 19 21 20 18 18 18 19 20 20 20 20
11 11 11 10 10 12 17 17 18 17 17 17 17 16 15 16 16 16 16 16 15 16 16 15 15 15 16 15 15 15 15 15 16 16 16 16 16 16 16 16 16 16 16 16 16 15 15 15 16 16 16 17 17 17 17 17 17 17 17 17 16 15 15 16 17 18 18 17 14 6 8 7 7 9 22 19 20 20 19 21 19 19 20 21 19
11 10 10 10 8 10 15 16 17 17 17 16 16 16 16 16 16 16 15 16 15 15 15 16 16 15 15 15 16 15 15 15 15 16 16 15 16 16 16 16 16 16 16 17 16 15 16 16 16 16 16 17 17 17 17 17 17 17 17 17 16 15 14 15 16 18 18 10 8 6 7 9 8 5 21 18 20 20 20 18 19 20 20 17 21
9 8 10 9 8 11 15 16 17 17 17 17 16 16 16 16 16 15 15 16 16 16 16 15 16 16 16 15 16 15 15 15 15 15 16 16 16 16 15 15 15 15 16 16 16 16 16 16 16 16 17 17 17 17 17 17 17 17 17 17 16 15 17 16 16 15 16 9 9 8 8 9 8 6 18 18 20 20 19 20 19 20 20 21 18
10 9 9 10 10 13 12 14 16 17 17 17 16 16 16 16 16 16 15 15 15 15 16 16 16 16 16 16 16 15 15 15 15 16 15 16 16 15 15 15 15 15 16 16 16 16 16 16 17 17 17 17 17 17 17 17 17 17 17 17 16 16 16 16 16 14 7 7 8 8 8 7 6 6 14 19 20 19 21 18 15 19 19 18 19
10 10 10 9 9 13 13 15 16 17 17 16 16 16 16 16 16 15 16 15 15 15 15 15 16 16 16 15 15 15 15 15 15 15 15 15 15 15 16 15 15 14 15 16 16 16 16 17 16 16 17 17 17 17 17 17 17 17 17 17 17 17 16 16 15 11 8 9 8 8 9 11 5 7 15 18 20 20 20 21 14 15 14 19 18
13 10 10 11 11 14 14 15 17 17 17 17 16 16 16 16 16 15 16 15 16 16 15 15 15 15 16 15 15 15 15 15 15 15 14 15 15 15 15 15 15 15 15 15 16 16 16 16 16 16 17 17 17 17 17 17 17 17 17 17 16 16 16 16 12 6 7 9 8 8 9 13 8 7 16 19 19 19 18 19 18 16 18 17 19
12 11 11 10 14 15 13 14 16 16 16 17 16 16 16 15 15 15 15 15 15 15 15 15 15 14 14 15 15 15 15 15 15 15 14 15 15 14 14 15 14 15 15 15 15 15 15 15 16 17 17 17 17 17 17 17 17 17 17 17 16 16 15 15 8 7 7 7 8 8 8 8 8 12 19 18 18 18 18 18 17 18 17 18 19
11 13 12 11 10 13 13 14 15 16 16 16 16 16 16 16 15 16 15 15 15 14 14 15 15 16 14 14 15 15 15 15 15 14 14 14 14 14 14 14 14 15 15 15 15 15 15 15 16 16 17 17 17 17 17 17 17 17 17 17 17 16 15 14 6 8 8 9 8 8 7 6 6 17 17 17 18 17 17 17 17 18 19 18 19
12 13 12 11 9 13 13 13 13 15 16 16 16 16 16 16 16 15 16 15 15 14 15 14 14 15 16 16 15 15 14 14 15 14 14 14 14 14 14 14 14 14 15 15 15 15 15 15 16 16 17 17 17 17 17 17 17 17 17 18 18 17 16 10 11 9 9 9 9 9 5 4 8 18 18 17 17 16 16 17 17 18 19 19 19
14 13 12 11 10 9 13 13 13 14 16 16 16 17 17 16 15 16 15 15 14 15 14 15 15 15 14 14 14 15 15 15 14 14 14 14 13 13 13 14 14 14 14 14 14 15 15 15 16 16 17 17 17 17 17 17 17 17 17 17 18 16 15 8 8 8 9 9 8 9 8 5 17 17 17 16 17 16 16 17 18 18 19 19 19
13 12 12 11 9 8 9 12 14 13 14 15 16 16 16 16 16 16 15 15 15 15 15 15 15 15 15 14 14 14 15 15 14 14 14 14 13 13 13 13 14 14 14 14 15 15 15 15 16 16 17 17 17 17 16 16 16 16 16 17 17 16 16 11 8 8 7 7 7 8 9 6 18 17 17 16 18 17 17 17 18 18 19 19 19
12 13 13 11 10 8 9 9 11 14 13 13 13 15 16 16 15 15 15 15 15 15 15 14 15 15 15 15 15 14 15 15 15 14 14 13 13 13 13 13 14 14 14 14 15 15 15 15 16 16 16 17 17 16 16 16 16 16 16 16 17 16 15 12 8 8 7 8 7 8 8 4 14 17 16 15 15 15 16 16 18 18 18 18 19
13 13 12 12 10 9 9 10 10 9 9 11 12 13 14 15 16 15 15 15 15 15 15 15 15 15 15 15 15 14 15 15 15 14 14 13 13 12 12 12 13 14 14 14 14 15 15 15 15 16 16 16 16 16 16 15 15 15 15 16 15 15 15 12 8 7 7 8 8 7 7 11 16 16 15 15 15 16 16 17 17 18 18 19 19
12 13 13 12 11 10 10 9 9 9 9 7 6 9 13 14 15 15 15 15 15 15 15 15 15 15 16 15 15 15 14 14 14 13 13 13 12 12 12 12 12 13 14 14 14 14 15 15 15 15 16 16 15 15 15 15 14 15 16 15 15 15 15 9 6 7 7 7 7 7 7 16 15 15 14 14 15 16 17 17 18 17 18 19 19
10 12 12 10 10 10 9 9 9 9 8 7 7 7 11 13 13 14 15 15 15 15 15 15 15 15 15 15 15 11 10 10 14 9 12 12 12 10 12 11 12 13 13 13 14 14 15 15 15 15 15 15 15 15 15 14 14 15 15 15 14 11 7 7 6 6 7 7 7 6 12 15 15 14 14 16 16 16 17 18 18 18 19 19 19
7 11 11 10 10 11 11 9 10 10 10 9 7 7 10 12 11 14 16 15 15 15 15 14 13 13 12 13 12 7 5 5 6 6 10 6 10 11 12 12 12 13 13 13 13 14 14 15 14 15 15 14 14 14 14 14 14 15 14 14 11 7 6 7 7 6 6 5 6 6 15 14 14 15 16 15 15 16 16 17 18 18 19 19 20
9 10 10 11 11 10 11 11 10 11 11 8 6 6 8 10 8 7 7 10 11 11 8 5 6 4 7 5 5 5 6 5 5 6 4 5 7 12 11 12 12 13 12 13 13 12 12 12 12 11 11 10 9 3 5 9 13 14 14 12 6 6 6 6 7 6 6 5 5 9 16 14 14 14 14 14 15 16 16 17 17 18 19 19 20
10 10 10 13 11 10 9 11 10 11 12 9 7 7 8 6 6 6 6 7 6 5 6 5 4 4 2 4 5 5 5 5 5 6 5 9 7 10 11 12 12 13 12 12 12 12 11 11 10 9 9 9 3 2 2 3 5 11 9 6 7 6 5 5 6 7 6 5 4 13 14 14 14 14 15 16 16 16 16 17 17 18 18 19 20
13 11 12 11 12 11 10 10 10 12 11 8 7 7 6 6 5 5 5 5 5 4 4 4 3 3 5 6 6 5 5 5 9 11 8 4 6 9 10 9 9 10 11 8 10 10 10 8 6 7 6 4 3 3 4 4 5 5 5 6 5 5 5 5 6 6 6 6 6 15 14 14 14 14 14 15 15 16 16 17 18 18 19 19 20
15 11 10 11 13 13 9 10 11 10 10 9 8 7 7 6 6 6 5 5 5 5 5 4 3 4 6 6 6 6 5 5 4 5 5 5 3 4 3 3 3 2 6 4 3 2 4 2 1 4 3 4 4 4 4 5 5 5 5 5 6 4 4 5 5 6 5 6 6 14 14 14 14 14 14 14 15 16 16 17 17 18 18 19 20
6 12 12 12 12 13 12 12 11 10 9 8 8 8 7 6 6 6 6 5 6 6 5 5 5 5 4 4 4 5 4 4 3 4 4 3 3 3 4 4 3 2 3 3 3 2 3 3 4 5 4 4 4 4 4 4 5 5 5 5 6 4 5 6 5 4 5 5 7 13 13 13 14 15 15 15 15 15 16 17 18 18 19 19 20
10 13 14 12 12 12 13 13 12 10 10 7 8 7 6 5 5 5 6 6 5 6 5 5 5 4 4 4 4 5 5 4 3 3 3 3 3 3 3 3 3 4 4 3 2 2 4 5 5 4 4 3 3 3 4 4 4 4 4 4 4 4 5 5 4 4 5 5 7 13 12 13 14 15 15 15 15 16 16 17 17 18 19 19 19
7 5 9 12 14 10 11 10 11 11 8 9 10 8 6 6 6 7 5 6 5 6 6 5 4 3 2 4 4 5 5 5 4 3 4 4 3 3 3 3 3 3 3 3 3 3 5 5 4 4 4 3 3 2 3 3 4 4 4 4 4 4 4 4 4 4 4 4 4 8 12 13 13 14 15 15 16 16 16 17 17 18 19 19 20
8 8 5 10 10 11 11 10 10 10 8 9 8 8 7 7 6 6 6 5 5 5 5 5 5 4 4 3 3 5 5 4 4 4 4 3 3 3 3 3 3 2 3 3 3 3 3 3 3 3 5 3 3 3 1 2 4 4 4 3 3 4 4 4 4 4 4 3 3 5 10 11 12 13 14 15 16 17 17 17 18 18 18 19 20
11 8 8 7 7 11 13 12 12 9 10 9 7 8 8 7 7 7 6 6 5 5 4 5 5 5 5 4 4 4 5 5 5 5 4 4 3 3 3 2 3 3 4 4 4 3 3 3 3 3 3 3 4 2 3 3 4 4 4 3 4 3 4 4 4 4 4 4 2 2 8 9 9 11 13 14 15 16 18 18 18 18 18 19 20
11 8 7 8 8 9 10 10 8 4 8 9 9 9 8 7 7 7 6 6 5 6 5 5 5 5 4 4 3 3 4 4 5 5 3 3 3 4 3 2 3 3 3 4 5 3 5 4 4 1 2 4 3 2 4 3 4 4 3 3 3 4 3 4 3 4 3 3 3 3 4 9 9 10 12 13 14 16 17 18 19 19 19 19 20
13 12 9 9 11 10 11 10 10 8 6 9 8 8 8 8 7 7 8 7 7 6 5 5 5 4 5 4 4 5 4 5 4 4 3 3 3 3 3 3 2 3 4 4 5 4 4 3 2 2 2 4 3 1 4 4 4 4 3 2 3 3 4 3 3 3 2 3 4 4 4 4 9 10 12 13 13 15 17 18 19 19 19 20 21
10 12 11 11 13 13 12 10 10 10 8 9 9 8 7 7 7 7 7 6 6 6 6 5 4 4 4 3 3 4 4 4 4 4 4 4 3 3 3 3 3 3 3 3 2 1 3 3 1 1 1 3 3 1 1 4 4 3 2 3 4 3 3 5 4 3 2 2 3 3 3 4 4 8 12 12 13 15 16 18 19 19 20 20 21
12 9 12 13 10 10 11 10 9 9 10 7 9 9 8 7 7 6 7 7 6 6 6 5 5 4 4 3 4 4 4 3 3 3 4 4 3 3 4 3 2 2 1 2 1 1 3 1 2 2 1 3 3 3 2 4 4 3 3 1 3 2 4 4 3 1 1 2 2 3 3 4 4 4 4 9 13 14 16 17 18 19 20 21 21
10 10 14 14 13 11 12 10 10 11 10 11 8 8 8 8 7 6 6 6 6 5 6 6 5 4 4 4 5 5 4 3 3 4 4 4 4 4 4 3 1 0 2 3 2 1 1 0 1 3 1 2 3 1 2 4 4 3 3 2 3 1 4 4 3 2 1 1 3 3 3 3 2 3 3 3 7 12 16 17 17 19 20 20 21
15 15 12 13 13 11 10 12 13 12 10 10 10 10 9 8 7 6 7 6 6 5 5 5 5 5 4 4 6 5 3 3 3 3 3 4 4 5 4 2 1 1 2 0 1 4 2 2 1 3 1 2 3 1 1 3 4 3 1 3 2 0 3 3 3 2 0 2 3 4 3 1 1 2 3 4 4 5 15 16 16 18 19 20 20
15 16 16 14 13 12 10 12 14 14 12 12 11 9 9 9 8 7 7 7 6 5 5 5 4 4 4 5 5 5 3 3 2 2 4 4 5 5 4 1 1 1 1 1 4 2 1 2 2 2 3 2 3 1 1 3 4 3 2 3 1 0 1 2 2 2 1 3 3 2 2 2 1 3 2 3 3 3 8 14 15 17 18 19 20
15 17 17 18 17 14 13 12 10 11 11 11 10 10 9 9 8 7 7 7 7 5 5 4 4 5 4 5 5 4 4 3 3 4 4 4 4 4 3 1 1 1 2 4 3 3 3 1 3 4 4 4 1 1 1 3 3 4 3 2 0 1 1 1 1 0 3 3 2 1 0 0 1 1 2 2 3 3 4 7 12 13 15 18 19
14 17 15 13 12 12 11 12 13 11 10 11 11 11 10 8 8 8 7 7 6 5 4 4 4 5 4 4 5 5 4 3 3 2 3 4 4 4 3 2 1 0 2 3 3 3 3 3 3 2 3 3 3 3 3 3 3 1 3 3 1 0 1 1 1 2 2 2 1 1 1 2 1 3 2 3 2 3 3 4 4 5 6 16 18
12 13 14 13 13 13 12 11 12 12 11 10 10 10 9 8 9 8 8 5 6 5 4 5 5 4 4 4 4 4 3 3 2 2 3 4 5 4 3 1 2 0 1 3 3 3 1 2 3 2 3 3 4 4 4 3 1 2 2 3 3 2 0 1 2 0 1 2 1 1 2 2 3 3 3 3 3 2 3 4 4 6 5 8 15
11 11 14 15 16 16 15 15 12 13 12 10 10 11 11 9 8 7 8 6 5 5 5 5 5 4 4 4 5 4 3 2 2 2 3 4 5 3 2 1 2 3 5 3 4 3 3 2 1 2 1 1 4 5 4 3 2 2 1 2 2 3 3 1 1 1 1 1 2 3 2 3 2 3 3 3 3 3 4 4 5 6 6 6 6
12 14 13 13 14 14 15 15 12 12 12 10 8 9 7 7 9 7 7 7 6 5 5 4 5 5 5 4 5 4 3 3 2 2 3 4 4 3 3 1 3 4 3 3 4 2 1 1 1 1 3 3 2 3 3 2 1 0 0 1 0 0 2 2 2 1 1 2 2 1 1 1 1 2 2 3 3 4 3 4 5 6 6 6 6
17 16 14 14 10 9 9 12 11 14 12 11 9 9 9 8 8 7 7 6 5 4 5 5 5 5 4 4 5 3 2 3 2 2 3 3 3 3 2 2 3 2 3 3 1 0 0 0 1 1 0 1 2 2 4 4 0 3 2 1 1 1 1 1 2 2 1 2 1 0 0 1 1 1 1 3 4 4 3 4 4 6 6 6 6
12 12 13 14 13 13 12 11 12 11 10 10 10 9 9 9 8 9 6 5 6 6 6 5 5 5 5 3 4 3 3 3 1 2 2 3 4 3 3 3 2 3 1 3 2 2 2 2 3 2 2 1 1 1 3 4 3 2 1 1 1 1 1 1 2 1 3 1 2 0 1 1 1 3 3 3 3 4 3 4 4 5 6 6 6
13 14 14 14 12 15 14 15 13 13 11 11 11 11 12 11 9 9 8 9 7 5 5 4 3 4 4 3 3 3 3 2 1 2 3 3 4 4 3 3 2 2 3 4 4 2 2 2 3 3 3 1 2 1 2 3 3 2 2 1 1 1 0 1 1 1 0 1 1 0 0 1 0 1 2 2 2 3 3 4 4 5 5 6 6
13 12 14 14 15 14 15 13 11 11 12 12 11 10 10 11 11 10 8 5 6 5 5 6 5 4 4 4 3 3 3 1 0 2 3 3 3 3 3 2 1 3 4 3 3 3 4 4 3 2 3 3 2 3 2 1 2 3 4 2 1 1 1 4 2 1 0 1 2 1 2 3 1 0 1 1 2 3 3 3 4 4 5 5 6
12 12 12 13 14 15 16 16 14 13 13 13 14 12 11 9 10 9 9 9 9 4 4 5 5 4 4 5 4 3 2 1 1 3 3 3 3 2 3 3 3 3 2 4 4 4 3 2 3 3 3 3 4 2 4 2 1 3 3 4 4 2 0 1 1 0 2 2 0 2 4 3 3 1 0 0 1 3 3 3 4 4 4 5 6
14 13 13 12 16 16 16 15 12 13 12 11 10 10 11 10 9 9 7 7 7 7 7 6 6 6 5 5 4 3 1 2 2 3 3 3 3 2 1 2 3 3 4 4 4 3 2 1 2 3 4 5 4 4 4 2 4 0 1 2 1 1 3 4 3 4 2 1 2 1 1 4 3 2 2 1 2 1 2 3 3 4 5 5 5
14 15 14 14 14 14 15 14 14 14 13 15 13 11 10 10 9 8 7 5 5 6 5 6 6 6 7 5 5 4 1 2 3 2 3 2 2 2 1 3 3 3 4 4 3 4 4 4 4 5 4 4 4 3 5 4 4 2 2 1 1 1 1 2 1 3 2 2 3 1 3 3 1 0 0 2 2 1 1 2 2 3 4 5 5
13 13 12 13 13 14 14 15 14 12 13 14 12 11 10 9 9 9 10 8 6 6 6 7 6 5 7 6 5 4 2 2 2 2 3 2 2 3 2 3 3 4 4 4 3 3 3 4 4 4 4 5 4 4 4 4 3 3 3 2 4 2 2 2 4 5 2 1 1 5 4 4 5 4 1 2 2 1 1 1 2 3 3 5 5
11 12 11 12 13 14 16 16 15 11 12 13 13 12 10 9 9 10 10 10 9 9 8 7 7 6 6 6 5 4 3 3 2 2 2 3 3 2 2 2 3 3 4 3 3 3 3 3 4 4 5 4 4 4 4 4 4 4 5 6 5 4 2 2 2 4 2 1 4 4 5 4 4 5 2 3 3 2 1 1 1 2 3 4 4
Wind_Direction
139 136 139 145 141 138 136 136 128 126 126 122 122 116 119 117 111 109 109 109 106 103 100 95 98 97 89 88 97 99 93 91 90 86 86 86 87 87 88 88 89 89 88 85 82 82 80 78 76 75 73 70 70 70 68 68 66 65 63 61 57 57 56 54 49 36 53 67 62 59 51 51 50 48 41 44 47 43 38 39 42 18 8 29 30
139 137 138 141 142 145 140 136 133 134 133 125 119 121 118 115 115 113 112 107 102 104 102 99 98 100 102 101 99 98 96 93 94 92 90 88 89 90 89 88 88 88 87 86 84 83 82 79 75 72 73 72 70 68 68 65 63 62 62 59 57 57 55 49 42 32 46 59 66 61 54 50 49 52 45 41 44 40 38 40 35 28 12 26 27
129 134 138 143 145 141 138 139 140 135 129 123 121 122 116 113 111 111 109 108 108 101 102 106 102 100 102 102 98 95 95 93 91 92 95 93 91 90 90 90 88 85 83 83 83 82 81 76 76 73 71 71 68 67 64 63 63 64 63 61 60 57 51 44 39 38 42 51 57 67 56 44 46 46 44 44 39 38 35 37 33 28 23 26 29
131 135 135 143 144 142 138 136 131 129 126 128 124 116 119 117 115 113 110 110 110 108 103 100 104 102 98 100 99 95 91 92 92 92 90 92 93 93 91 91 91 87 86 83 81 78 77 77 75 74 72 70 68 66 65 66 67 66 63 61 57 50 46 46 45 41 45 44 53 64 58 45 40 43 40 44 39 35 36 33 33 30 28 27 27
133 133 135 142 143 141 139 140 140 134 129 123 120 121 120 119 116 117 116 108 109 109 104 101 99 101 103 99 99 95 95 92 92 92 94 93 92 92 91 90 89 88 84 81 75 77 79 78 76 74 73 71 69 68 67 67 67 64 63 61 53 48 51 52 51 47 41 31 39 54 48 31 30 41 44 41 39 33 34 33 32 33 32 27 26
130 132 137 138 141 141 141 138 135 132 135 129 129 126 124 123 120 117 117 118 113 110 114 112 108 107 102 96 93 96 99 99 96 95 93 93 94 94 92 90 87 87 88 84 80 78 79 77 76 75 73 72 70 68 66 66 65 64 62 56 49 49 53 55 56 53 45 32 20 51 47 30 28 31 41 38 38 34 30 26 27 30 31 23 26
127 134 137 139 136 139 135 134 139 136 132 128 127 126 123 119 119 117 117 116 116 113 108 107 107 101 103 104 105 101 99 96 97 96 95 93 93 93 93 93 93 91 88 85 83 81 80 79 78 75 73 72 69 67 65 65 65 64 60 51 46 50 52 58 60 58 51 36 24 28 46 28 21 14 40 36 36 35 34 26 31 31 26 23 25
132 140 135 132 133 136 140 143 135 133 131 129 128 128 126 125 122 121 121 121 117 113 112 111 109 109 107 106 104 103 102 101 100 99 99 98 96 95 94 94 91 88 87 88 85 82 80 80 78 75 72 70 69 67 66 64 63 62 56 47 45 49 52 52 54 60 66 53 37 32 39 26 15 5 36 35 36 35 33 29 27 35 27 27 25
141 139 131 127 130 137 132 126 130 135 133 133 127 124 124 123 122 122 118 113 113 113 111 110 110 109 109 107 106 105 104 102 100 99 97 97 97 96 96 93 93 90 88 87 86 83 81 79 77 74 73 71 69 67 66 64 63 60 54 48 45 51 52 55 53 42 40 65 56 41 37 34 10 4 32 34 38 33 34 36 25 29 29 29 26
143 140 131 119 131 131 129 132 139 137 133 129 127 131 127 121 118 121 119 118 113 106 108 109 111 110 109 108 106 104 101 98 101 101 102 98 98 98 95 95 91 90 88 85 85 83 82 79 77 76 74 72 69 66 64 63 61 58 53 48 46 52 52 52 39 23 39 43 46 44 37 28 7 11 30 34 35 37 34 37 30 29 30 31 26
145 140 121 125 133 131 134 144 139 135 135 133 133 127 123 125 125 122 120 118 119 120 117 113 109 109 110 108 106 105 105 101 100 100 100 101 99 98 94 90 88 88 87 85 84 83 82 81 80 78 76 73 70 67 64 62 60 57 53 47 39 36 55 50 29 21 42 46 38 40 30 19 24 21 30 36 36 36 35 35 33 28 27 26 24
139 122 119 127 132 133 141 137 135 137 134 131 128 125 123 121 121 118 120 118 115 115 113 111 111 108 105 107 107 104 101 102 101 100 101 102 101 98 97 94 90 89 89 88 87 85 84 83 82 79 77 74 72 68 65 62 59 56 51 43 33 21 53 48 28 18 40 43 41 40 28 12 20 31 33 35 36 35 35 31 30 28 25 25 23
124 117 120 126 129 132 131 132 137 136 133 131 128 125 126 125 125 123 119 119 117 117 116 114 113 112 113 107 105 103 103 104 102 99 100 99 98 97 94 95 94 92 90 90 89 87 85 84 83 81 79 76 73 70 67 63 59 54 49 41 33 24 58 46 22 25 40 32 31 33 32 12 10 35 33 32 37 36 32 32 27 24 24 23 22
112 118 125 128 130 131 130 133 135 133 131 128 126 125 124 121 122 121 120 120 119 115 116 116 114 114 115 115 112 108 109 106 103 103 99 97 95 96 98 97 96 93 93 90 90 89 86 86 85 83 81 78 75 72 69 65 60 55 50 43 36 45 49 39 36 36 35 32 22 14 11 6 25 35 34 30 36 33 30 32 27 24 23 20 20
119 125 128 126 128 130 123 119 121 125 128 130 129 129 129 128 126 123 120 119 118 118 115 114 112 114 111 110 109 109 107 105 104 103 99 94 93 95 98 99 95 92 91 92 92 89 87 86 86 84 82 80 77 74 71 67 62 57 52 47 42 50 53 38 39 38 34 29 17 6 354 342 35 34 35 28 31 31 27 29 26 22 20 20 19
123 129 123 127 125 125 118 115 117 120 125 130 131 129 128 127 125 125 126 123 118 117 118 116 115 111 109 108 108 106 106 104 104 102 102 101 98 95 95 94 94 93 93 92 91 90 89 88 86 85 84 82 80 76 73 68 64 59 54 51 48 49 56 53 42 36 34 27 15 5 349 360 35 34 35 27 23 23 25 24 23 20 17 15 14
124 124 128 129 126 122 118 116 114 113 115 119 123 127 128 128 129 126 125 124 121 120 118 117 115 115 112 110 108 109 108 107 105 104 103 102 99 97 96 93 95 95 93 90 90 90 90 89 87 86 85 83 81 78 74 69 65 61 57 55 53 52 57 60 51 36 30 24 14 359 348 334 33 34 34 28 27 25 25 23 19 20 18 13 11
128 130 132 131 131 124 117 117 117 114 113 113 117 123 128 129 128 127 127 123 122 120 119 118 116 115 113 111 105 105 106 106 105 104 102 101 99 93 92 94 94 95 95 92 91 91 90 89 88 87 86 84 81 78 74 71 66 62 60 57 56 56 55 56 64 49 34 22 13 355 327 18 36 36 29 28 24 24 24 22 19 17 13 8 9
131 134 133 138 135 127 127 126 125 122 117 114 112 117 122 126 128 127 123 122 121 119 118 117 115 115 113 111 109 106 104 103 103 101 98 94 94 92 91 93 96 97 96 96 96 93 91 91 90 88 86 83 80 77 74 70 67 64 63 61 58 58 53 47 58 58 40 28 6 350 348 19 34 34 29 27 22 24 22 20 17 14 9 7 8
138 138 140 140 140 132 137 138 135 133 127 117 112 109 111 113 116 118 123 122 120 118 116 117 116 115 115 109 107 97 95 99 98 93 98 95 95 90 89 89 92 96 95 95 95 95 94 93 91 88 85 82 79 76 73 70 66 66 66 64 60 47 53 53 48 53 46 30 10 337 11 21 29 30 27 28 24 20 18 18 15 12 7 6 6
143 144 143 143 139 141 145 142 144 139 127 121 105 99 97 92 99 115 123 123 120 110 109 112 113 115 115 114 112 110 100 75 67 66 83 91 94 91 89 89 90 91 94 96 97 96 96 95 94 91 87 82 78 74 72 68 67 66 66 65 53 43 55 72 57 46 44 31 3 356 21 15 33 25 23 25 23 22 19 12 14 7 8 4 3
152 147 147 145 143 151 156 148 147 139 130 116 110 109 103 98 101 103 113 119 118 115 110 111 113 122 139 122 110 103 100 109 107 100 82 74 86 91 87 88 87 88 92 95 96 99 100 98 95 92 87 84 82 76 66 67 70 69 68 59 46 48 47 70 74 58 47 20 0 19 21 18 25 29 26 23 23 21 19 13 10 6 7 4 1
151 154 155 150 149 153 163 146 147 131 119 114 121 119 113 125 124 130 134 134 130 120 127 128 142 154 136 83 72 68 71 71 74 87 92 96 91 86 85 86 84 85 86 89 91 94 96 97 94 92 90 88 86 83 76 65 57 73 70 60 55 49 48 58 79 73 51 32 356 29 23 21 26 22 23 22 22 20 16 10 10 7 4 4 1
156 160 154 151 153 159 161 146 138 129 123 127 134 135 142 143 134 136 132 124 112 105 90 85 84 85 85 83 83 87 91 100 111 110 101 97 99 101 97 88 87 92 88 80 89 93 92 92 91 75 52 57 74 76 76 74 70 64 71 68 60 56 54 51 76 86 61 36 25 34 27 22 27 22 23 22 20 20 16 12 7 7 3 3 2
157 148 150 156 158 157 150 136 133 130 128 136 147 148 139 135 145 139 127 121 114 102 93 88 77 73 85 102 115 119 126 134 150 141 132 141 141 138 147 124 127 113 117 131 141 125 118 153 54 73 52 45 41 35 49 53 65 55 54 65 65 55 47 49 59 91 77 46 36 36 31 26 27 23 22 19 19 19 15 12 9 4 5 2 2
158 146 156 156 159 162 140 142 141 136 136 147 140 132 140 149 144 135 128 117 108 110 111 107 93 90 100 104 106 113 117 124 125 120 139 158 140 121 110 136 147 154 100 85 87 111 118 81 63 69 59 53 48 39 37 62 70 63 54 53 65 64 54 44 42 75 93 66 42 39 33 29 25 25 20 18 18 17 14 10 9 5 6 3 2
177 162 154 156 155 167 144 147 142 134 137 140 128 138 136 132 124 122 121 121 122 113 106 97 97 104 117 128 125 121 118 117 116 130 124 105 100 100 100 86 77 78 98 106 112 76 75 74 68 79 84 81 67 57 60 56 67 71 65 60 57 63 67 56 38 44 96 82 49 41 36 32 26 25 20 18 17 13 12 10 9 6 6 5 2
167 183 157 150 157 151 138 134 133 135 146 139 137 130 127 125 126 123 117 124 114 108 109 117 111 103 118 128 133 129 129 119 106 89 80 67 70 85 91 76 74 68 85 100 88 82 80 72 87 108 99 91 105 92 78 85 87 91 83 71 64 59 64 66 54 45 58 90 65 42 39 32 27 22 19 15 13 12 10 9 8 6 6 3 3
172 167 155 143 151 145 128 121 121 131 137 145 138 129 131 130 126 119 120 112 105 112 121 110 91 73 42 43 89 109 106 110 109 101 98 92 78 73 69 77 83 80 83 57 80 93 99 120 145 143 135 127 105 88 82 71 86 94 91 95 96 75 66 49 41 49 39 67 105 50 40 31 22 16 13 11 10 10 9 6 5 7 4 5 2
170 160 144 146 130 135 134 131 138 156 150 139 133 132 138 134 124 118 113 104 107 111 104 101 100 85 59 39 56 92 105 109 104 95 98 99 92 85 73 67 69 56 68 62 31 64 93 93 90 93 109 130 105 130 93 67 63 65 81 73 73 93 92 78 49 45 47 31 43 49 40 27 13 7 5 3 3 5 6 5 4 4 5 4 3
152 151 145 137 138 128 119 123 122 151 143 139 141 137 134 128 125 118 105 107 101 87 82 89 91 88 81 56 51 67 87 91 102 106 101 117 118 104 116 93 58 53 78 81 46 46 57 56 35 41 135 116 133 153 110 104 94 79 62 69 102 85 79 84 64 55 39 33 40 21 28 20 9 1 0 357 357 359 0 3 3 3 3 4 3
167 163 154 145 139 133 129 134 143 135 146 136 127 122 120 116 116 114 118 119 112 104 97 91 92 90 82 72 72 72 75 69 76 96 110 102 85 79 75 85 83 54 60 63 62 59 87 85 39 10 35 103 132 95 135 126 109 92 86 91 70 82 82 75 72 63 47 45 53 24 27 24 11 3 2 355 357 358 357 360 1 2 2 4 4
177 152 145 148 146 139 138 144 143 144 139 134 127 121 118 120 121 118 115 114 112 110 105 98 93 91 91 94 88 86 78 83 78 82 89 91 100 94 76 67 63 90 85 86 97 148 123 116 121 260 38 85 82 77 47 108 105 127 104 101 106 98 86 78 58 34 61 46 60 39 29 33 13 11 2 354 359 357 356 358 360 2 2 3 4
161 148 145 151 147 141 139 140 145 135 133 119 121 125 123 116 111 112 114 111 109 111 113 106 95 89 86 78 77 80 85 90 90 94 99 97 94 98 92 78 71 91 129 153 162 95 96 120 195 123 182 147 134 160 159 108 113 121 111 85 84 102 106 82 90 83 66 71 77 56 41 49 26 17 347 341 357 356 356 356 359 1 0 1 1
153 152 158 153 149 150 148 143 140 133 121 124 122 117 122 116 111 107 98 100 102 103 106 107 109 101 92 82 77 74 62 54 77 94 112 114 98 92 79 67 21 350 74 29 73 74 93 62 18 140 199 94 109 161 140 138 131 126 140 129 114 127 106 126 126 85 35 67 71 45 57 68 36 21 329 342 352 352 357 356 358 360 359 358 357
163 160 153 148 146 150 151 140 139 134 133 130 122 117 110 106 102 101 104 101 100 96 88 94 102 99 90 82 77 68 60 45 31 66 72 91 102 88 90 79 289 49 86 130 41 71 31 75 18 33 109 118 119 166 77 111 112 117 99 99 122 272 112 125 125 99 217 90 75 49 29 52 84 21 11 356 348 352 358 357 359 1 359 357 356
161 158 157 150 146 147 145 143 140 134 128 126 124 120 115 109 106 106 104 98 90 85 81 84 94 96 91 83 80 81 67 55 31 56 88 86 91 92 88 56 328 107 80 45 58 67 103 96 32 2 34 124 87 75 47 109 120 113 83 83 90 319 93 106 93 184 160 79 71 64 32 0 24 49 30 356 341 4 349 355 359 359 357 356 355
165 163 159 156 153 150 146 138 126 123 126 128 124 116 111 107 106 102 101 99 95 88 85 88 91 86 84 80 79 76 64 45 34 67 68 74 85 95 80 33 337 37 61 63 67 44 8 87 91 33 30 27 69 126 162 105 101 120 129 115 168 295 83 52 147 225 97 55 50 32 230 312 43 56 36 359 342 6 347 341 354 355 354 356 356
163 161 153 146 139 139 136 135 128 125 124 127 119 111 109 104 105 109 105 100 95 100 108 100 84 84 89 99 91 84 70 47 21 54 111 95 83 86 80 6 335 50 93 101 79 53 27 15 93 93 53 56 66 56 43 83 95 108 145 169 169 170 80 54 354 77 102 115 89 343 46 7 31 31 24 356 345 356 346 342 345 348 344 354 357
156 150 150 143 141 138 133 132 131 130 127 127 126 121 119 123 118 106 92 90 100 102 92 94 94 89 79 81 84 80 74 63 44 29 58 89 85 74 83 355 338 17 65 74 65 67 55 54 25 86 103 62 44 31 40 29 353 163 183 164 179 160 184 142 266 275 95 118 94 30 38 356 36 20 14 342 334 341 2 351 350 343 343 348 354
141 151 147 148 153 150 145 145 142 136 136 140 142 142 141 130 115 119 119 118 109 97 84 80 84 82 80 76 85 84 81 62 29 59 70 75 87 88 92 13 328 44 69 82 75 50 4 67 65 23 55 82 37 16 20 42 37 338 188 187 191 177 170 181 244 270 194 136 83 54 354 25 10 24 350 337 341 7 14 1 349 342 344 349 345
149 149 155 156 155 151 148 143 139 136 141 143 138 135 136 135 131 130 119 120 124 125 119 103 95 77 64 58 68 62 64 60 48 49 52 78 92 80 72 23 47 70 80 71 67 71 355 356 23 28 10 94 57 22 7 57 30 233 239 271 45 258 186 189 248 259 99 87 70 73 10 6 353 359 351 350 359 6 9 9 352 346 344 346 346
155 157 150 139 134 134 138 141 147 144 146 139 139 135 131 126 130 131 134 111 64 81 94 99 96 90 73 70 75 80 67 66 47 50 59 60 65 84 77 63 50 99 109 106 132 137 101 10 331 154 102 46 115 34 39 70 191 303 252 81 221 92 309 306 257 229 166 131 132 105 276 347 350 358 347 30 12 346 1 11 358 351 343 344 344
146 146 150 148 147 148 146 146 143 138 134 136 130 126 112 104 102 113 101 91 121 101 94 93 98 100 90 82 74 69 73 66 82 102 76 56 51 60 62 65 51 12 72 117 89 57 34 19 1 358 93 141 89 36 45 46 74 42 40 165 229 140 350 288 196 277 157 148 114 164 35 346 4 8 29 33 4 349 357 16 6 353 343 339 343
154 157 155 158 158 153 151 150 147 142 139 141 138 134 126 120 108 92 94 95 84 97 98 84 98 105 107 96 87 71 72 57 25 79 82 69 53 48 60 62 58 352 19 81 73 59 43 49 5 14 74 121 100 117 26 49 41 36 143 49 352 53 206 255 61 296 71 101 193 143 318 262 51 8 35 354 5 354 22 12 8 353 339 340 342
156 161 162 159 152 148 145 144 140 140 143 146 143 137 134 136 137 136 139 133 131 141 149 154 155 147 137 120 97 77 81 114 122 77 88 91 75 56 35 65 53 31 42 95 113 76 34 34 346 0 59 51 130 115 91 53 92 53 66 104 150 177 283 287 74 321 338 211 187 209 223 236 169 121 27 11 11 6 26 19 9 347 338 341 339
158 157 160 156 152 152 152 152 150 150 152 150 150 144 142 150 149 146 143 152 151 171 148 142 141 132 122 126 112 93 113 162 137 93 75 84 92 62 48 47 57 54 20 72 65 76 68 15 5 27 15 33 42 106 130 164 41 23 50 81 80 78 162 96 76 9 14 332 162 238 274 271 202 144 158 205 28 46 359 28 2 343 341 342 340
154 158 161 156 155 158 155 151 151 152 152 149 148 152 148 153 148 148 149 149 158 154 153 146 138 130 128 122 114 112 172 154 100 97 100 91 93 88 67 74 68 43 59 65 59 63 98 27 21 29 35 47 63 87 103 69 139 222 78 68 90 111 81 76 126 134 160 303 318 324 299 245 184 213 181 138 80 67 19 13 2 345 348 341 336
155 162 168 160 157 155 153 154 156 157 158 160 159 158 155 155 152 144 139 143 133 131 125 125 134 136 131 128 125 129 153 106 104 114 106 107 102 109 58 78 82 65 78 71 64 61 56 42 38 41 42 46 41 46 86 65 76 73 57 355 56 84 61 55 85 99 97 52 291 332 313 319 2 308 203 144 140 128 97 48 359 354 354 338 336
160 163 159 154 155 154 155 158 160 163 161 161 159 156 154 153 152 152 145 142 131 122 127 137 140 140 135 132 124 130 151 133 121 135 124 110 101 97 80 101 103 84 90 106 100 80 68 57 54 50 44 66 44 63 82 88 85 53 69 77 60 0 32 27 26 31 23 128 227 299 317 340 337 288 251 147 128 131 96 67 17 358 350 338 335
151 155 155 157 155 159 162 162 165 163 164 162 161 157 157 162 155 153 150 145 144 140 140 145 146 145 139 133 135 149 163 158 153 139 116 104 89 92 94 110 109 114 131 130 113 115 113 114 94 66 56 74 73 68 61 66 79 62 55 75 87 103 131 125 72 54 95 46 3 320 312 307 285 294 278 204 154 163 139 88 63 359 343 339 337